Location: Goettingen
(51.5300°N, 9.9433°E)
Time: 13:02:41
(UTC+02:00)

ISS - Pass Details

Date: 25 September 2020
Orbit: 419 x 420 km, 51.6° (Epoch: 18 September)

Event Time Altitude Azimuth Distance (km) Brightness Sun altitude
Rises 22:32:41 0° 283° (WNW) 2,370 0.9 -29.7°
Reaches altitude 10° 22:34:48 10° 279° (W) 1,504 -0.3 -30.0°
Enters shadow 22:34:58 11° 278° (W) 1,436 -0.4 -30.0°
